EW8930 Weather Reports


time (UTC)temp
F
wind
direction
speed
knots
gust
knots
rain 1hr
in
rain 24hr
in
rain mn
in
humidity
%
barometer
mb
20260503233056 54 267 15.6 22.6 0.00 0.00 0.00 62 1011.9
20260503231601 57 269 11.3 20.9 0.00 0.00 0.00 60 1011.8
20260503230108 58 284 17.4 26.1 0.00 0.00 0.00 55 1011.7
20260503224559 60 244 12.2 20.9 0.00 0.00 0.00 39 1011.4
20260503223054 61 240 11.3 21.7 0.00 0.00 0.00 40 1011.5
20260503221553 61 250 14.8 21.7 0.00 0.00 0.00 39 1011.5
20260503220052 61 240 13.9 20.0 0.00 0.00 0.00 39 1011.5
20260503214550 61 236 16.5 23.5 0.00 0.00 0.00 38 1011.5
20260503213056 61 257 14.8 26.1 0.00 0.00 0.00 38 1011.6
20260503211606 61 211 14.8 21.7 0.00 0.00 0.00 38 1011.7
20260503210049 61 238 15.6 26.9 0.00 0.00 0.00 36 1011.9
20260503204546 62 240 12.2 20.0 0.00 0.00 0.00 37 1011.9
20260503203049 63 217 11.3 23.5 0.00 0.00 0.00 36 1012.1
20260503201544 62 245 15.6 25.2 0.00 0.00 0.00 37 1012.2
20260503200054 62 241 15.6 21.7 0.00 0.00 0.00 36 1012.2
20260503194539 62 249 13.9 20.9 0.00 0.00 0.00 37 1012.5
20260503193042 62 250 13.9 21.7 0.00 0.00 0.00 36 1012.6
20260503191542 62 227 13.0 21.7 0.00 0.00 0.00 37 1013.0
20260503190041 62 223 13.9 24.3 0.00 0.00 0.00 37 1013.1
20260503184540 62 227 13.0 23.5 0.00 0.00 0.00 36 1013.4
20260503183030 61 233 13.9 21.7 0.00 0.00 0.00 36 1013.5
20260503181527 62 240 13.9 21.7 0.00 0.00 0.00 38 1013.6
20260503180042 62 238 13.0 22.6 0.00 0.00 0.00 40 1013.8
20260503174529 61 279 14.8 20.9 0.00 0.00 0.00 40 1014.1
20260503173029 61 234 15.6 21.7 0.00 0.00 0.00 38 1014.2
20260503171518 61 233 14.8 20.0 0.00 0.00 0.00 40 1014.3
20260503150106 54 279 10.4 17.4 0.00 0.00 0.00 58 1016.0
20260503120106 41 236 5.2 8.7 0.00 0.00 0.00 70 1016.6
20260503081555 36 238 0.9 4.3 0.00 0.00 0.00 78 1016.7
20260503080106 36 229 1.7 5.2 0.00 0.00 0.00 78 1016.8
20260503071557 37 222 1.7 4.3 0.00 0.00 0.00 77 1016.8
20260503054533 39 221 2.6 4.3 0.00 0.00 0.00 72 1017.1
20260503053032 40 208 2.6 5.2 0.00 0.00 0.00 72 1017.2
20260503051535 40 244 2.6 5.2 0.00 0.00 0.00 72 1017.3
20260503050027 40 213 3.5 5.2 0.00 0.00 0.00 72 1017.2
20260503044527 40 223 2.6 4.3 0.00 0.00 0.00 73 1017.3
20260503043021 40 220 2.6 4.3 0.00 0.00 0.00 71 1017.2
20260503041519 41 223 1.7 3.5 0.00 0.00 0.00 70 1017.3
20260503040015 41 229 2.6 3.5 0.00 0.00 0.00 70 1017.4
20260503034515 42 225 2.6 4.3 0.00 0.00 0.00 68 1017.4
20260503033026 43 226 2.6 4.3 0.00 0.00 0.00 67 1017.3
20260503031514 43 238 2.6 4.3 0.00 0.00 0.00 67 1017.5
20260503030026 43 205 0.9 2.6 0.00 0.00 0.00 66 1017.5
20260503024512 44 203 0.0 2.6 0.00 0.00 0.00 65 1017.6
20260503023012 44 229 1.7 3.5 0.00 0.00 0.00 64 1017.6
20260503021512 44 202 0.0 1.7 0.00 0.00 0.00 62 1017.6
20260503020011 44 223 0.9 2.6 0.00 0.00 0.00 62 1017.6
20260503014510 44 220 1.7 2.6 0.00 0.00 0.00 62 1017.5
20260503013010 44 219 0.9 1.7 0.00 0.00 0.00 61 1017.5
20260503011508 45 224 0.9 1.7 0.00 0.00 0.00 60 1017.4
20260503010007 45 221 0.9 1.7 0.00 0.00 0.00 56 1017.4
20260503004514 45 283 0.0 0.9 0.00 0.01 0.00 59 1017.3
20260503003008 45 284 0.0 1.7 0.00 0.01 0.00 62 1017.3
20260503001506 46 283 1.7 5.2 0.00 0.01 0.00 61 1017.3
20260503000012 46 279 2.6 5.2 0.00 0.01 0.00 55 1017.2
20260502234505 46 269 1.7 4.3 0.00 0.01 0.00 54 1017.2